Regional Weather Roundup
Issued by NWS

Home | Current Version | Previous Version | Graphics & Text | Print | Product List | Glossary On
Versions: 1 2 3 4 5 6 7 8 9 10 11 12 13 14 15 16 17 18 19 20 21 22 23 24 25 26 27 28 29 30 31 32 33 34 35 36 37 38 39 40 41 42 43 44 45 46 47 48 49 50
000
ASUS43 KLSX 271259
RWRMO

WEATHER SUMMARY FOR MISSOURI
NATIONAL WEATHER SERVICE SPRINGFIELD MO
800 AM CDT FRI MAR 27 2015

NOTE: "FAIR" INDICATES FEW OR NO CLOUDS BELOW 12,000 FEET WITH NO
       SIGNIFICANT WEATHER AND/OR OBSTRUCTIONS TO VISIBILITY.
       CURRENT SKY AND/OR WEATHER CONDITIONS ARE NOT AVAILABLE FOR
       CHILLICOTHE AND FARMINGTON.

MOZ001>031-035>038-043-044-053-054-271400-
...NORTHERN AND WESTERN MISSOURI...

CITY           SKY/WX    TMP DP  RH WIND       PRES   REMARKS
KANSAS CTY INT CLEAR     30  25  81 N10       30.25R WCI  21
KANSAS C DTWN  CLEAR     34  27  75 N10       30.25R WCI  26
LEE`S SUMMIT   CLEAR     32  27  81 N12       30.23R WCI  23
ST JOSEPH      PTCLDY    29  24  82 N7        30.28R WCI  22
CHILLICOTHE      N/A     30  22  72 NW7       30.25R WCI  23
KIRKSVILLE     CLOUDY    31  21  66 N8        30.20R WCI  23

$$
MOZ066>068-077>081-088>096-101>105-271400-
...SOUTHWEST MISSOURI...

CITY           SKY/WX    TMP DP  RH WIND       PRES   REMARKS
SPRINGFIELD    LGT RAIN  38  35  89 N12       30.13R
JOPLIN         CLOUDY    39  35  86 N10       30.18R

$$
MOZ032>034-039>042-045>050-055>058-069>072-271400-
...CENTRAL MISSOURI...

CITY           SKY/WX    TMP DP  RH WIND       PRES   REMARKS
COLUMBIA       PTSUNNY   33  26  75 N9        30.18R WCI  25
JEFFERSON CITY CLOUDY    34  27  75 N9        30.20R WCI  27
ROLLA          FLURRIES  30  27  88 MISG      30.13R
SEDALIA        PTCLDY    35  31  85 N8        30.20R WCI  29
OSAGE BEACH    CLOUDY    36  28  75 N7        30.17R WCI  30

$$
MOZ051-052-059>065-271400-
...EAST CENTRAL MISSOURI...

CITY           SKY/WX    TMP DP  RH WIND       PRES   REMARKS
ST LOUIS INTL  FLURRIES  34  26  72 N8        30.15R WCI  27
SPIRIT OF STL  PTSUNNY   34  23  64 N8G18     30.16R WCI  27
ST CHARLES     MOSUNNY   34  22  61 N9        30.15R WCI  27

$$
MOZ072>076-082>087-097>100-106>115-271400-
...SOUTH CENTRAL AND SOUTHEAST MISSOURI...

CITY           SKY/WX    TMP DP  RH WIND       PRES   REMARKS
CAPE GIRARDEAU CLOUDY    38  32  79 N9        30.09R
FARMINGTON     CLOUDY    32  28  86 N9        30.14R WCI  24
POPLAR BLUFF   CLOUDY    40  28  62 N9        30.08R
WEST PLAINS    CLOUDY    37  29  72 MISG      30.09R

$$



USA.gov is the U.S. government's official web portal to all federal, state and local government web resources and services.